This demonstration page uses our WeatherBlox Daily Observations layout. Learn more.

Left ArrowRight Arrow

Hourly Observations for June 6, 2018

Temp ( °F °C ) Dew Point ( °F °C ) Humidity (%) Winds ( mph kmh ) Pressure ( in mb ) Visibility ( mi km ) Precip ( " mm )
12:53 am 00:53 Clear 52 11.1 44 6.7 75 75 SW 3 6 29.89 1012 10 16 0.00 0.00
1:53 am 01:53 Clear 49 9.4 43 6.1 80 80 Calm 29.90 1013 10 16 0.00 0.00
2:53 am 02:53 Clear 47 8.3 43 6.1 86 86 SW 3 6 29.90 1013 10 16 0.00 0.00
3:53 am 03:53 Clear 47 8.3 42 5.6 83 83 WSW 6 9 29.90 1013 10 16 0.00 0.00
4:53 am 04:53 Clear 45 7.2 41 5 86 86 Calm 29.91 1013 10 16 0.00 0.00
5:53 am 05:53 Sunny 46 7.8 42 5.6 86 86 ENE 6 9 29.93 1014 10 16 0.00 0.00
6:53 am 06:53 Sunny 51 10.6 46 7.8 83 83 E 6 9 29.93 1014 10 16 0.00 0.00
7:53 am 07:53 Sunny 57 13.9 47 8.3 69 69 Calm 29.93 1014 10 16 0.00 0.00
8:53 am 08:53 Sunny 63 17.2 46 7.8 54 54 VRB 3 6 29.92 1013 10 16 0.00 0.00
9:53 am 09:53 Sunny 67 19.4 46 7.8 47 47 Calm 29.92 1013 10 16 0.00 0.00
10:53 am 10:53 Sunny 70 21.1 47 8.3 44 44 Calm 29.91 1013 10 16 0.00 0.00
11:53 am 11:53 Sunny 73 22.8 47 8.3 40 40 SW 8 13 29.89 1012 10 16 0.00 0.00
12:53 pm 12:53 Sunny 78 25.6 39 3.9 25 25 W 12 19 29.87 1012 10 16 0.00 0.00
1:53 pm 13:53 Sunny 79 26.1 35 1.7 20 20 WSW 10 17 29.85 1011 10 16 0.00 0.00
2:53 pm 14:53 Sunny 81 27.2 35 1.7 19 19 WSW 12 19 29.83 1010 10 16 0.00 0.00
3:53 pm 15:53 Sunny 82 27.8 38 3.3 21 21 W 9 15 29.81 1010 10 16 0.00 0.00
4:53 pm 16:53 Sunny 81 27.2 38 3.3 21 21 VRB 3 6 29.81 1010 10 16 0.00 0.00
5:53 pm 17:53 Sunny 82 27.8 37 2.8 20 20 WSW 6 9 29.80 1009 10 16 0.00 0.00
6:53 pm 18:53 Sunny 82 27.8 39 3.9 22 22 N 6 9 29.78 1009 10 16 0.00 0.00
7:53 pm 19:53 Sunny 79 26.1 41 5 26 26 NNW 6 9 29.78 1008 10 16 0.00 0.00
8:53 pm 20:53 Sunny 74 23.3 41 5 31 31 N 5 7 29.78 1008 10 16 0.00 0.00
9:53 pm 21:53 Mostly Clear 66 18.9 45 7.2 47 47 Calm 29.81 1009 10 16 0.00 0.00
10:53 pm 22:53 Partly Cloudy 59 15 48 8.9 67 67 SSE 5 7 29.82 1010 10 16 0.00 0.00
11:53 pm 23:53 Mostly Clear 62 16.7 48 8.9 60 60 ESE 3 6 29.81 1009 10 16 0.00 0.00

Powered by AerisWeather